Location: Lafig�re
(44.4503°N, 4.0357°E)
Time: 01:45:46
(UTC+00:00)

Transit 4A - Pass Details

Date: 26 January 2021
Orbit: 866 x 978 km, 66.8° (Epoch: 02 March)

Event Time Altitude Azimuth Distance (km) Brightness Sun altitude
Rises 17:56:25 0° 200° (SSW) 3,656 11.5 -12.8°
Reaches altitude 10° 17:58:59 10° 198° (SSW) 2,717 10.8 -13.3°
Maximum altitude 18:05:18 66° 117° (ESE) 1,059 8.0 -14.4°
Enters shadow 18:11:11 12° 37° (NE) 2,569 9.8 -15.4°
Drops below altitude 10° 18:11:36 10° 37° (NE) 2,719 - -15.5°
Sets 18:14:10 0° 35° (NE) 3,660 - -15.9°
